sat.trackr.live / text

‹ back to catalog

PRSC-S1

NORAD 65055 · 2025-164A

PAYLOAD ACTIVE UNKNOWN

§ Identity

Operator
Country
PAKI
Launch date
2025-07-31
Launch site
XICLF
Launch vehicle
Mass (kg)
RCS (m²)

Purposes: earth_obs

External: N2YO · Heavens-Above · Gunter

§ Orbital elements

Epoch: 2026-09-19T23:34:17.411808Z

Period
95.55 min
Inclination
41.1294°
Eccentricity
0.0008111
Mean motion
15.07090070 rev/d
Perigee alt
539.5 km
Apogee alt
550.7 km
Semi-major
6,923.2 km
B*
1.8310e-4
RAAN
113.6562°
Arg perigee
277.4235°
Mean anomaly
82.5657°
Rev number
6,273

§ Raw data

PRSC-S11 65055U 25164A   26262.98214597  .00002620  00000+0  18310-3 0  99972 65055  41.1294 113.6562 0008111 277.4235  82.5657 15.07090070 62739

JSON: /api/v1/satellites/65055 · /tle

For live sub-satellite position, see the globe view (requires WebGL).

§ Visibility from observer

Set your observer location to see the next 7 days of passes ≥ 10°. The values pass through the URL so the page stays shareable.

No JS? Fill the form by hand. The geolocation button needs JavaScript.

§ Radio — SatNOGS DB

ModeDescriptionDownlinkUplink
FM S-band telemetry 2.209 GHz

1 transmitter · refreshed weekly from db.satnogs.org